Location: Appleton
(44.2618°N, 88.4157°W)
Time: 08:03:08
(UTC+00:00)

S-56A Canister/Altair - Pass Details

Date: 04 March 2021
Orbit: 632 x 2500 km, 38.9° (Epoch: 17 April)

Event Time Altitude Azimuth Distance (km) Brightness Sun altitude
Rises 17:01:41 0° 192° (SSW) 5,090 12.4 37.6°
Reaches altitude 10° 17:05:41 10° 179° (S) 4,379 12.5 37.8°
Maximum altitude 17:14:44 24° 132° (SE) 3,831 12.3 38.3°
Drops below altitude 10° 17:25:10 10° 87° (E) 5,148 11.9 38.8°
Sets 17:30:22 0° 76° (ENE) 6,179 12.1 39.0°
